This is the latest recevied weather packets stored in our database for station/object K3JSE-4. If no packets are shown the sender has not sent any weather packets the latest 10 day(s).
| Time | Temp. | Humidity | Pressure | Rain* | Wind** | Luminosity | Snow |
|---|---|---|---|---|---|---|---|
| 1777821943 | 9.44° C | 48% | 1015.5 hPa | 0 mm | - | - | - |
| 1777821643 | 9.44° C | 46% | 1015.5 hPa | 0 mm | - | - | - |
| 1777821343 | 9.44° C | 48% | 1015.7 hPa | 0 mm | - | - | - |
| 1777821043 | 10° C | 49% | 1015.7 hPa | 0 mm | - | - | - |
| 1777820743 | 8.89° C | 47% | 1015.7 hPa | 0 mm | - | - | - |
| 1777820443 | 8.33° C | 48% | 1015.7 hPa | 0 mm | - | - | - |
| 1777820143 | 8.89° C | 49% | 1015.7 hPa | 0 mm | - | - | - |
| 1777819843 | 8.89° C | 51% | 1015.7 hPa | 0 mm | - | - | - |
| 1777819543 | 8.33° C | 51% | 1015.7 hPa | 0 mm | - | - | - |
| 1777819243 | 8.89° C | 50% | 1015.8 hPa | 0 mm | - | - | - |
| 1777818943 | 9.44° C | 48% | 1015.8 hPa | 0 mm | - | - | - |
| 1777818643 | 9.44° C | 53% | 1015.7 hPa | 0 mm | - | - | - |
| 1777818343 | 9.44° C | 51% | 1015.8 hPa | 0 mm | - | - | - |
| 1777818043 | 8.89° C | 51% | 1015.8 hPa | 0 mm | - | - | - |
| 1777817743 | 8.89° C | 49% | 1015.7 hPa | 0 mm | - | - | - |
| 1777817443 | 8.89° C | 54% | 1015.7 hPa | 0 mm | - | - | - |
| 1777817143 | 8.33° C | 51% | 1015.8 hPa | 0 mm | - | - | - |
| 1777816843 | 8.33° C | 52% | 1015.8 hPa | 0 mm | - | - | - |
| 1777816543 | 8.33° C | 55% | 1015.7 hPa | 0 mm | - | - | - |
| 1777816243 | 7.78° C | 53% | 1015.7 hPa | 0 mm | - | - | - |
| 1777815943 | 7.22° C | 55% | 1015.7 hPa | 0 mm | - | - | - |
| 1777815643 | 6.67° C | 58% | 1015.7 hPa | 0 mm | - | - | - |
| 1777815343 | 6.67° C | 54% | 1015.8 hPa | 0 mm | - | - | - |
| 1777815043 | 7.22° C | 54% | 1015.7 hPa | 0 mm | - | - | - |
| 1777814743 | 7.22° C | 56% | 1015.7 hPa | 0 mm | - | - | - |
* Rain latest hour (hover to see other rain measurements)
** Current wind speed in m/s (hover to see current wind gust speed)